Regional Weather Roundup
Issued by NWS Goodland, KS

Home | Current Version | Previous Version | Graphics & Text | Print | Product List | Glossary On
Versions: 1 2 3 4 5 6 7 8 9 10 11 12 13 14 15 16 17 18 19 20 21 22 23 24 25 26 27 28 29 30 31 32 33 34 35 36 37 38 39 40 41 42 43 44 45 46 47 48 49 50
000
ASUS43 KGLD 231359
RWRGLD

GOODLAND FORECAST AREA HOURLY WEATHER ROUNDUP
NATIONAL WEATHER SERVICE GOODLAND KS
800 AM MDT WED APR 23 2014

...OFFICIAL OBSERVATIONS...

CITY           SKY/WX    TMP DP  RH WIND       PRES   REMARKS
GOODLAND KS    CLOUDY    64  43  46 SW21G36   29.61S
HILL CITY KS   PTSUNNY   61  47  59 S16G25    29.66F
IMPERIAL NEB   CLOUDY    61  44  53 SE3       29.54R
MCCOOK NEB     CLOUDY    61  47  59 S18       29.57F
AKRON CO       CLOUDY    62  33  33 SW21G31   29.57R
BURLINGTON CO  CLOUDY    63  42  46 SW25      29.64S
LIMON CO       PTSUNNY   53  37  54 S12       29.67S
$$

...UNOFFICIAL OBSERVATIONS...

CITY           SKY/WX    TMP DP  RH WIND       PRES   REMARKS
COLBY KS       SUNNY     63  46  55 S20G26    29.62F
LENORA KS        N/A     60  32  34 S23         N/A
LEOTI KS         N/A     62  32  32 S15         N/A
NORTON KS      SUNNY     55  43  62 SE17G23   29.63F
SHARON SPRINGS   N/A     60  44  55 S17G26      N/A
WAKEENEY KS      N/A     63  45  52 MISG        N/A
KIT CARSON CO    N/A     59  43  55 MISG        N/A
$$



USA.gov is the U.S. government's official web portal to all federal, state and local government web resources and services.